カタログに戻る

OPS 4682 DEB

運用中PO
NORAD 38377·DEBRIS·🇺🇸 United States

打ち上げ Apr 3, 1965 から Vandenberg Space Force Base

Loading…

次のパス (今後24時間)

TLE

最新Source: Space-Track

元期: Sep 12, 2026, 01:31 UTC

1 38377U 65027CE  26255.06384710 -.00000022  00000-0 -10245-3 0  9998
2 38377  90.2577  13.3370 0034845 239.6256 120.1418 12.96688076615365

AllMySatでOPS 4682 DEBをリアルタイム追跡

Download on the App Store